Weather History for Ely, MN

Change the Weather History Date:

Wednesday, October 31, 2012

  Actual Average Record
Temperature  
Mean Temperature 26 °F -  
Max Temperature 41 °F 41 °F 66 °F (1999)
Min Temperature 12 °F 27 °F 12 °F (2012)
Degree Days  
Heating Degree Days 38    
Moisture  
Dew Point 15 °F    
Average Humidity 64    
Maximum Humidity 100    
Minimum Humidity 21    
Precipitation  
Precipitation 0.00 in - - ()
Sea Level Pressure  
Sea Level Pressure 29.96 in    
Wind  
Wind Speed 2 mph (NNW)    
Max Wind Speed 8 mph    
Max Gust Speed -    
Visibility 10 miles    
Events      
Averages and records for this station are not official NWS values.
T = Trace of Precipitation, MM = Missing Value Source: NWS Daily Summary

Daily Weather History Graph

Daily Weather History Graph

Search for Another Location

Airport:

Trip Planner

Search our weather history database for the weather conditions in past years. The results will help you decide how hot, cold, wet, or windy it might be!

Date:

Astronomy

Oct. 31, 2012 Rise Set
Actual Time 7:51 AM CDT 5:49 PM CDT
Civil Twilight 7:18 AM CDT 6:22 PM CDT
Nautical Twilight 6:42 AM CDT 6:58 PM CDT
Astronomical Twilight 6:06 AM CDT 7:34 PM CDT
Moon 6:52 PM CDT (10/31) 9:40 AM CDT (10/31)
Length of Visible Light 11h 03m
Length of Day
9h 58m
Full, 97% of the Moon is Illuminated
Oct 31
Full
Nov 6
Last Quarter
Nov 13
New
Nov 20
First Quarter
Nov 28
Full

Hourly Weather History & Observations

Time (CDT) Temp. Windchill Dew Point Humidity Pressure Visibility Wind Dir Wind Speed Gust Speed Precip Events Conditions
12:13 AM 26.6 °F 21.2 °F 19.4 °F 74% 30.06 in 10.0 mi NE 4.6 mph - N/A   Clear
12:32 AM 24.8 °F - 19.4 °F 80% 30.06 in 10.0 mi Calm Calm - N/A   Clear
12:53 AM 26.6 °F 19.1 °F 19.4 °F 74% 30.06 in 10.0 mi NE 6.9 mph - N/A   Clear
1:13 AM 21.2 °F - 17.6 °F 86% 30.05 in 10.0 mi Calm Calm - N/A   Clear
1:32 AM 24.8 °F - 17.6 °F 74% 30.05 in 10.0 mi Calm Calm - N/A   Clear
1:52 AM 21.2 °F - 17.6 °F 86% 30.05 in 10.0 mi Calm Calm - N/A   Clear
2:13 AM 21.2 °F - 17.6 °F 86% 30.05 in 10.0 mi Calm Calm - N/A   Clear
2:32 AM 21.2 °F - 17.6 °F 86% 30.05 in 10.0 mi Calm Calm - N/A   Clear
2:53 AM 21.2 °F - 17.6 °F 86% 30.05 in 10.0 mi Calm Calm - N/A   Clear
3:13 AM 21.2 °F - 17.6 °F 86% 30.05 in 10.0 mi Calm Calm - N/A   Clear
3:32 AM 21.2 °F - 17.6 °F 86% 30.04 in 10.0 mi Calm Calm - N/A   Clear
3:53 AM 21.2 °F - 17.6 °F 86% 30.04 in 10.0 mi Calm Calm - N/A   Clear
4:13 AM 21.2 °F - 17.6 °F 86% 30.04 in 10.0 mi Calm Calm - N/A   Clear
4:32 AM 21.2 °F - 17.6 °F 86% 30.03 in 10.0 mi Calm Calm - N/A   Clear
4:53 AM 19.4 °F - 17.6 °F 93% 30.03 in 10.0 mi Calm Calm - N/A   Clear
5:13 AM 19.4 °F - 17.6 °F 93% 30.02 in 10.0 mi Calm Calm - N/A   Clear
5:32 AM 19.4 °F - 17.6 °F 93% 30.02 in 10.0 mi Calm Calm - N/A   Clear
5:53 AM 19.4 °F - 17.6 °F 93% 30.01 in 10.0 mi Calm Calm - N/A   Clear
6:13 AM 17.6 °F - 17.6 °F 100% 30.01 in 10.0 mi Calm Calm - N/A   Clear
6:32 AM 15.8 °F - 12.2 °F 86% 30.01 in 10.0 mi Calm Calm - N/A   Clear
6:53 AM 12.2 °F 6.1 °F 12.2 °F 100% 30.00 in 10.0 mi NW 3.5 mph - N/A   Clear
7:13 AM 15.8 °F - 14.0 °F 93% 30.00 in 10.0 mi Calm Calm - N/A   Clear
7:32 AM 15.8 °F - 15.8 °F 100% 30.00 in 10.0 mi Calm Calm - N/A   Clear
7:53 AM 15.8 °F - 12.2 °F 86% 30.00 in 10.0 mi Calm Calm - N/A   Clear
8:13 AM 14.0 °F - 12.2 °F 93% 30.00 in 10.0 mi Calm Calm - N/A   Clear
8:32 AM 15.8 °F - 12.2 °F 86% 30.00 in 10.0 mi Calm Calm - N/A   Clear
8:53 AM 19.4 °F - 17.6 °F 93% 30.00 in 10.0 mi Calm Calm - N/A   Clear
9:13 AM 21.2 °F - 19.4 °F 93% 29.99 in 10.0 mi Calm Calm - N/A   Clear
9:32 AM 21.2 °F 14.9 °F 19.4 °F 93% 29.99 in 10.0 mi NE 4.6 mph - N/A   Clear
9:53 AM 21.2 °F 14.9 °F 19.4 °F 93% 29.99 in 10.0 mi NE 4.6 mph - N/A   Clear
10:12 AM 23.0 °F 17.0 °F 21.2 °F 93% 29.99 in 10.0 mi NE 4.6 mph - N/A   Clear
10:33 AM 24.8 °F 19.1 °F 21.2 °F 86% 29.98 in 10.0 mi NE 4.6 mph - N/A   Clear
10:52 AM 26.6 °F 22.6 °F 21.2 °F 80% 29.98 in 10.0 mi NNE 3.5 mph - N/A   Clear
11:18 AM 26.6 °F 22.6 °F 21.2 °F 80% 29.98 in 10.0 mi NE 3.5 mph - N/A   Clear
11:33 AM 28.4 °F 23.3 °F 21.2 °F 74% 29.98 in 10.0 mi ENE 4.6 mph - N/A   Clear
11:52 AM 30.2 °F 26.7 °F 21.2 °F 69% 29.97 in 10.0 mi NE 3.5 mph - N/A   Clear
12:13 PM 30.2 °F - 21.2 °F 69% 29.96 in 10.0 mi Calm Calm - N/A   Clear
12:33 PM 33.8 °F 29.6 °F 19.4 °F 56% 29.96 in 10.0 mi NE 4.6 mph - N/A   Clear
12:52 PM 35.6 °F 31.7 °F 15.8 °F 44% 29.95 in 10.0 mi North 4.6 mph - N/A   Clear
1:18 PM 37.4 °F 33.8 °F 15.8 °F 41% 29.94 in 10.0 mi North 4.6 mph - N/A   Clear
1:32 PM 37.4 °F 33.8 °F 14.0 °F 38% 29.94 in 10.0 mi NW 4.6 mph - N/A   Clear
2:13 PM 39.2 °F 35.9 °F 12.2 °F 33% 29.92 in 10.0 mi North 4.6 mph - N/A   Clear
2:32 PM 39.2 °F 35.9 °F 10.4 °F 31% 29.92 in 10.0 mi NW 4.6 mph - N/A   Clear
2:53 PM 39.2 °F 33.6 °F 6.8 °F 26% 29.91 in 10.0 mi NNW 8.1 mph - N/A   Clear
3:13 PM 39.2 °F 35.9 °F 8.6 °F 28% 29.90 in 10.0 mi North 4.6 mph - N/A   Clear
3:32 PM 41.0 °F 35.8 °F 6.8 °F 24% 29.91 in 10.0 mi WNW 8.1 mph - N/A   Clear
3:53 PM 41.0 °F 38.0 °F 6.8 °F 24% 29.90 in 10.0 mi NW 4.6 mph - N/A   Clear
4:13 PM 41.0 °F 36.4 °F 6.8 °F 24% 29.90 in 10.0 mi NW 6.9 mph - N/A   Clear
4:32 PM 41.0 °F 37.1 °F 3.2 °F 21% 29.89 in 10.0 mi NNW 5.8 mph - N/A   Clear
4:53 PM 39.2 °F 35.9 °F 6.8 °F 26% 29.89 in 10.0 mi NW 4.6 mph - N/A   Scattered Clouds
5:13 PM 37.4 °F - 8.6 °F 30% 29.89 in 10.0 mi Calm Calm - N/A   Clear
5:32 PM 37.4 °F - 10.4 °F 33% 29.89 in 10.0 mi Calm Calm - N/A   Mostly Cloudy
5:53 PM 35.6 °F 32.8 °F 8.6 °F 33% 29.90 in 10.0 mi NW 3.5 mph - N/A   Scattered Clouds
6:13 PM 33.8 °F 30.8 °F 10.4 °F 38% 29.91 in 10.0 mi NW 3.5 mph - N/A   Clear
6:32 PM 32.0 °F 28.7 °F 14.0 °F 48% 29.91 in 10.0 mi NW 3.5 mph - N/A   Scattered Clouds
6:53 PM 35.6 °F 31.7 °F 12.2 °F 38% 29.91 in 10.0 mi NNW 4.6 mph - N/A   Mostly Cloudy
7:13 PM 35.6 °F 32.8 °F 12.2 °F 38% 29.90 in 10.0 mi NW 3.5 mph - N/A   Overcast
7:32 PM 35.6 °F 32.8 °F 12.2 °F 38% 29.90 in 10.0 mi NW 3.5 mph - N/A   Mostly Cloudy
7:53 PM 35.6 °F 32.8 °F 14.0 °F 41% 29.90 in 10.0 mi NW 3.5 mph - N/A   Overcast
8:13 PM 35.6 °F 32.8 °F 14.0 °F 41% 29.89 in 10.0 mi NW 3.5 mph - N/A   Overcast
8:32 PM 35.6 °F 32.8 °F 14.0 °F 41% 29.89 in 10.0 mi NW 3.5 mph - N/A   Overcast
8:53 PM 35.6 °F 32.8 °F 15.8 °F 44% 29.89 in 10.0 mi WNW 3.5 mph - N/A   Overcast
9:13 PM 35.6 °F 31.7 °F 17.6 °F 48% 29.89 in 10.0 mi WNW 4.6 mph - N/A   Overcast
9:32 PM 35.6 °F 31.7 °F 17.6 °F 48% 29.89 in 10.0 mi NW 4.6 mph - N/A   Overcast
9:53 PM 35.6 °F 32.8 °F 17.6 °F 48% 29.89 in 10.0 mi WNW 3.5 mph - N/A   Overcast
10:13 PM 35.6 °F - 17.6 °F 48% 29.88 in 10.0 mi Calm Calm - N/A   Overcast
10:32 PM 35.6 °F - 17.6 °F 48% 29.88 in 10.0 mi Calm Calm - N/A   Overcast
10:53 PM 35.6 °F - 17.6 °F 48% 29.88 in 10.0 mi Calm Calm - N/A   Overcast
11:13 PM 35.6 °F - 19.4 °F 52% 29.87 in 10.0 mi Calm Calm - N/A   Overcast
11:32 PM 35.6 °F 32.8 °F 19.4 °F 52% 29.87 in 10.0 mi WNW 3.5 mph - N/A   Overcast
11:53 PM 35.6 °F 32.8 °F 19.4 °F 52% 29.86 in 10.0 mi WNW 3.5 mph - N/A   Overcast